Weather History for KMAI - June, 2013

Change the Weather History Date:

Saturday, June 15, 2013

  Actual Average Record
Temperature  
Mean Temperature 83 °F 80 °F  
Max Temperature 93 °F 91 °F - ()
Min Temperature 72 °F 70 °F - ()
Degree Days  
Heating Degree Days 0    
Month to date heating degree days 0  
Since 1 June heating degree days 0  
Since 1 July heating degree days 1377  
Cooling Degree Days 18    
Month to date cooling degree days 238  
Year to date cooling degree days 674  
Since 1 June cooling degree days 238  
Growing Degree Days 32 (Base 50)    
Moisture  
Dew Point 67 °F    
Average Humidity 64    
Maximum Humidity 87    
Minimum Humidity 41    
Precipitation  
Precipitation 0.00 in 0.19 in - ()
Month to date precipitation 2.07 2.67  
Year to date precipitation 22.97 24.89  
Sea Level Pressure  
Sea Level Pressure 30.00 in    
Wind  
Wind Speed 6 mph (East)    
Max Wind Speed 16 mph    
Max Gust Speed 22 mph    
Visibility 10 miles    
Events      
T = Trace of Precipitation, MM = Missing Value Source: NWS Daily Summary

Daily Weather History Graph

Daily Weather History Graph

Search for Another Location

Airport or City:

Trip Planner

Search our weather history database for the weather conditions in past years. The results will help you decide how hot, cold, wet, or windy it might be!

Date:

Astronomy

Jun. 15, 2013 Rise Set
Actual Time 5:37 AM CDT 7:45 PM CDT
Civil Twilight 5:09 AM CDT 8:13 PM CDT
Nautical Twilight 4:35 AM CDT 8:47 PM CDT
Astronomical Twilight 3:59 AM CDT 9:23 PM CDT
Moon 11:47 AM CDT (6/15) No Moon Set
Length of Visible Light 15h 03m
Length of Day
14h 08m
Waxing Crescent, 40% of the Moon is Illuminated
Jun 15
Waxing Crescent
Jun 16
First Quarter
Jun 23
Full
Jun 29
Last Quarter
Jul 8
New

Hourly Weather History & Observations

Time (CDT) Temp. Heat Index Dew Point Humidity Pressure Visibility Wind Dir Wind Speed Gust Speed Precip Events Conditions
12:53 AM 75.0 °F - 69.1 °F 82% 29.92 in 10.0 mi Calm Calm - N/A   Clear
1:53 AM 75.0 °F - 68.0 °F 79% 29.92 in 10.0 mi NNE 3.5 mph - N/A   Clear
2:53 AM 73.9 °F - 68.0 °F 82% 29.93 in 10.0 mi ENE 5.8 mph - N/A   Clear
3:53 AM 73.9 °F - 68.0 °F 82% 29.94 in 10.0 mi East 4.6 mph - N/A   Clear
4:53 AM 73.0 °F - 69.1 °F 87% 29.96 in 10.0 mi NE 4.6 mph - N/A   Clear
5:53 AM 73.0 °F - 70.0 °F 90% 29.98 in 9.0 mi ENE 4.6 mph - N/A   Clear
6:53 AM 75.0 °F - 71.1 °F 87% 30.00 in 9.0 mi ENE 6.9 mph - N/A   Mostly Cloudy
7:53 AM 78.1 °F - 72.0 °F 81% 30.03 in 10.0 mi East 6.9 mph 16.1 mph N/A   Mostly Cloudy
8:53 AM 82.0 °F 84.5 °F 66.9 °F 60% 30.04 in 10.0 mi ESE 11.5 mph 19.6 mph N/A   Clear
9:53 AM 84.0 °F 84.9 °F 63.0 °F 49% 30.04 in 10.0 mi East 15.0 mph 20.7 mph N/A   Clear
10:53 AM 86.0 °F 87.3 °F 64.0 °F 48% 30.04 in 10.0 mi East 11.5 mph 17.3 mph N/A   Clear
11:53 AM 88.0 °F 89.6 °F 64.9 °F 46% 30.04 in 10.0 mi East 6.9 mph - N/A   Clear
12:53 PM 90.0 °F 91.7 °F 64.9 °F 43% 30.02 in 10.0 mi East 11.5 mph 16.1 mph N/A   Clear
1:53 PM 90.0 °F 91.7 °F 64.9 °F 43% 30.01 in 10.0 mi ESE 9.2 mph - N/A   Clear
2:53 PM 91.0 °F 93.0 °F 64.9 °F 42% 30.00 in 10.0 mi East 8.1 mph 16.1 mph N/A   Clear
3:53 PM 91.0 °F 92.6 °F 64.0 °F 41% 30.00 in 10.0 mi East 8.1 mph - N/A   Clear
4:53 PM 91.0 °F 92.6 °F 64.0 °F 41% 29.99 in 10.0 mi East 4.6 mph - N/A   Clear
5:53 PM 90.0 °F 91.3 °F 64.0 °F 42% 29.98 in 10.0 mi East 5.8 mph - N/A   Clear
6:53 PM 88.0 °F 89.6 °F 64.9 °F 46% 29.99 in 10.0 mi East 4.6 mph - N/A   Clear
7:53 PM 86.0 °F 87.6 °F 64.9 °F 49% 29.99 in 10.0 mi Calm Calm - N/A   Clear
8:53 PM 82.9 °F 85.4 °F 66.9 °F 58% 30.01 in 10.0 mi Calm Calm - N/A   Scattered Clouds
9:53 PM 82.0 °F 84.5 °F 66.9 °F 60% 30.03 in 10.0 mi SSE 4.6 mph - N/A   Clear
10:53 PM 79.0 °F - 68.0 °F 69% 30.04 in 10.0 mi Calm Calm - N/A   Partly Cloudy
11:53 PM 79.0 °F - 69.1 °F 72% 30.04 in 10.0 mi Calm Calm - N/A   Overcast